Flag for Germany Weather past 2 weeks in Wismar, Mecklenburg-Western Pomerania, Germany

Now
44 °F

Drizzle. Low clouds.


Feels Like: 38 °F
Forecast: 47 / 49 °F
Wind: 12 mph from Southwest

Location: Schwerin

Current Time: Dec 22, 2014 at 1:07:17 AM

Latest Report: Dec 22, 2014 at 12:00 AM


Visibility: 3 mi

Pressure: 29.85 "Hg

Humidity: 96%

Dew point: 43 °F

Location of WismarLocation

Historic Weather in Wismar — Graph

°F

Wismar temperature yesterday

Maximum temperature yesterday: 44 °F (at 11:00 PM)
Minimum temperature yesterday: 38 °F (at 9:00 AM)
Average temperature yesterday: 41 °F

Past Weeks' High & Low Weather Summary

 TemperatureHumidityPressure
High52 °F (Dec 18, 11:00 PM)100% (Dec 7, 12:00 AM)30.32 "Hg (Dec 7, 12:00 AM)
Low31 °F (Dec 7, 12:00 AM)75% (Dec 20, 9:00 AM)29.21 "Hg (Dec 12, 3:00 PM)
Average39 °F90%29.81 "Hg
* Reported Midnight between Dec 6 and Dec 7 — Midnight between Dec 21 and Dec 22, Wismar, Weather by CustomWeather, © 2014

Note: Actual official high and low records may vary slightly from our data, if they occured in-between our weather recording intervals... More about our weather records

Advertising

Wismar weather history for previous 24 hours

 ConditionsComfort  
Time TempWeatherWind HumidityBarometerVisibility
12:00 AM
Dec 22
44 °FDrizzle. Low clouds.12 mph96%29.85 "Hg2 mi
11:00 PM
Dec 21
44 °FDrizzle. Low clouds.12 mph95%29.88 "Hg2 mi
9:00 PM42 °FLight freezing rain. Low clouds.10 mph96%29.94 "Hg2 mi
8:00 PM42 °FLow clouds.9 mph94%29.97 "Hg4 mi
7:00 PM42 °FDrizzle. Low clouds.10 mph92%29.99 "Hg2 mi
6:00 PM43 °FOvercast.9 mph85%30.02 "Hg7 mi
5:00 PM43 °FDrizzle. Overcast.9 mph87%30.05 "Hg6 mi
3:00 PM42 °FOvercast.8 mph88%30.10 "Hg6 mi
2:00 PM42 °FOvercast.9 mph86%30.13 "Hg7 mi
1:00 PM42 °FOvercast.9 mph89%30.15 "Hg7 mi
12:00 PM41 °FOvercast.8 mph87%30.16 "Hg8 mi
11:00 AM40 °FPartly sunny.7 mph89%30.17 "Hg7 mi
9:00 AM38 °FSunny.7 mph90%30.17 "Hg10 mi
8:00 AM40 °FOvercast.7 mph87%30.16 "Hg12 mi
7:00 AM39 °FPassing clouds.8 mph87%30.14 "Hg11 mi
6:00 AM39 °FPassing clouds.7 mph86%30.11 "Hg12 mi
5:00 AM40 °FPassing clouds.7 mph85%30.11 "Hg14 mi
3:00 AM41 °FPassing clouds.9 mph82%30.04 "Hg14 mi
2:00 AM40 °FPassing clouds.9 mph85%30.00 "Hg16 mi
1:00 AM40 °FPassing clouds.9 mph84%29.97 "Hg17 mi
Weather by CustomWeather, © 2014

See weather overviewHow to use our weather pages